Wind_Speed
45 45 44 42 41 40 40 40 39 39 39 40 40 40 41 41 40 40 40 40 40 39 40 40 40 40 39 37 33 30 27 24 21 18 15 14 13 11 9 8 7 8 10 11 14 17 19 21 23 24 23 22 22 21 18 15 13 11 9 9 9 9 9 10 11 13 13 14 15 16 17 17 17 16 15 15 15 16 18 20 21 21 23 26 29 32
44 45 45 43 42 41 40 40 39 39 38 38 39 40 40 41 40 40 41 40 40 40 40 40 40 41 41 40 37 35 33 31 28 25 21 17 15 12 10 8 7 7 9 10 12 14 17 19 21 23 23 21 21 21 19 17 14 12 10 9 9 9 10 11 12 13 14 15 16 18 18 17 17 16 15 15 16 17 19 22 22 24 28 31 34 36
42 44 45 45 43 42 41 40 40 39 38 38 38 38 38 39 39 40 40 41 40 40 40 41 41 41 42 41 39 37 36 34 31 28 25 20 17 15 12 8 7 6 7 9 10 12 14 17 19 22 23 22 20 21 20 18 16 13 12 11 10 10 11 12 13 14 15 16 17 17 17 16 16 15 14 14 16 18 20 22 25 28 32 35 37 39
40 42 44 45 44 43 42 42 41 40 39 39 38 37 38 38 39 39 41 41 41 41 41 42 42 42 42 41 40 38 36 35 33 29 26 23 19 17 13 8 7 7 6 7 8 10 12 14 17 20 22 22 20 20 20 19 16 15 14 12 11 11 12 13 14 15 15 16 17 16 15 14 15 14 13 14 16 18 20 23 27 30 33 37 38 41
38 40 42 44 45 45 44 44 43 42 41 39 39 38 38 38 39 40 41 41 41 41 42 43 43 43 42 42 41 39 37 35 34 31 28 25 21 19 16 10 8 8 6 6 7 8 9 12 15 18 21 21 20 19 20 19 17 15 15 14 12 11 12 13 14 15 15 16 16 15 14 14 14 13 14 16 17 19 21 24 28 31 34 37 39 42
37 39 40 42 44 45 45 45 44 43 42 40 40 39 39 39 39 39 40 40 40 41 42 43 43 43 43 42 41 40 38 36 35 33 30 27 23 20 18 12 9 9 7 6 6 6 7 10 13 16 18 20 20 19 19 19 17 15 15 14 13 12 12 13 14 15 15 15 15 15 15 14 14 14 16 17 18 20 22 26 29 32 34 36 39 42
36 37 39 40 42 44 45 45 44 43 42 41 41 40 40 39 39 39 39 39 40 41 42 43 43 43 42 42 41 40 39 37 36 34 31 29 25 22 21 15 11 11 9 6 6 5 5 7 10 13 16 19 19 18 18 18 17 15 14 13 13 13 13 14 14 14 14 14 15 16 15 15 14 16 18 19 20 22 25 28 31 33 34 36 39 41
35 36 37 39 40 41 43 44 45 44 43 43 42 41 40 40 39 39 38 38 39 40 42 42 42 42 41 41 41 40 39 38 37 35 33 31 27 23 23 19 14 13 12 9 7 5 4 5 7 11 14 16 18 18 16 17 16 15 14 13 12 12 12 13 14 14 14 13 14 15 15 16 16 18 20 21 22 24 27 30 32 33 34 37 40 41
34 35 36 37 38 39 41 42 44 44 44 44 43 42 41 41 40 40 39 39 39 40 41 41 41 41 41 40 40 40 39 38 38 37 34 33 30 25 25 23 17 15 14 11 9 6 4 3 4 8 11 14 16 17 16 16 16 15 14 13 12 11 11 12 14 15 16 16 16 15 16 17 18 20 22 24 25 27 30 32 33 34 35 39 41 40
32 34 34 35 36 38 39 40 42 43 44 45 44 43 42 42 42 41 40 40 40 40 40 40 41 41 41 41 41 40 40 39 39 37 36 35 32 28 27 26 20 17 16 14 11 8 5 2 2 5 8 11 14 16 15 14 15 14 13 13 12 11 11 11 13 16 18 19 18 17 18 20 22 23 25 27 29 31 32 33 34 36 38 40 41 39
31 32 33 34 35 36 37 38 39 41 43 44 44 44 43 42 42 42 42 42 41 40 40 40 40 41 42 42 42 42 41 40 39 38 37 36 34 31 30 28 24 19 18 16 14 10 6 4 2 2 5 8 11 14 14 13 13 13 13 12 12 12 12 12 13 16 19 20 20 21 23 26 27 28 30 32 33 33 34 34 36 38 40 40 40 38
29 30 31 32 34 34 35 36 37 38 40 42 43 44 43 42 42 42 42 42 41 41 41 40 40 41 41 42 42 43 42 41 40 38 37 37 35 34 33 31 27 23 21 19 17 13 9 7 4 1 2 5 8 11 13 12 11 12 12 12 12 12 13 14 14 16 19 20 22 24 27 28 28 29 31 34 35 35 36 36 38 39 40 40 38 36
27 28 30 31 32 33 33 34 35 37 38 40 42 43 43 42 42 43 43 43 42 42 41 41 40 40 40 41 42 43 42 42 41 40 39 38 37 36 35 33 30 26 24 22 19 16 12 10 7 4 1 2 5 8 10 11 10 10 11 12 12 12 14 15 16 17 19 21 23 26 27 27 27 27 29 31 33 34 35 35 37 37 38 37 35 33
27 28 29 30 31 31 32 33 34 35 36 38 39 41 41 42 42 42 42 42 42 42 42 41 41 41 40 41 42 42 42 42 42 41 40 39 38 38 36 35 33 30 27 24 22 19 15 12 9 6 4 1 2 5 7 9 9 9 10 11 12 12 13 16 17 19 20 21 24 26 26 25 25 26 27 29 30 31 31 32 33 34 34 33 32 31
27 27 28 29 29 30 31 32 33 33 35 36 37 38 39 40 41 41 41 42 42 43 43 43 43 42 42 41 42 42 42 43 43 42 41 41 41 39 38 36 35 32 30 27 25 22 18 15 12 10 7 4 2 2 4 6 8 8 8 10 12 13 14 15 18 19 20 21 23 25 25 24 24 25 26 28 29 29 29 30 31 32 31 31 30 30
27 27 27 28 28 29 29 30 31 32 33 33 34 35 36 38 39 40 40 41 42 42 43 44 44 44 43 43 42 42 43 43 44 44 43 43 43 42 40 38 37 35 33 30 27 25 22 18 15 12 10 7 5 2 1 3 5 6 7 9 11 13 14 15 17 18 19 20 22 23 23 23 22 24 25 25 26 26 26 28 29 30 30 30 30 30
26 27 27 27 27 28 28 28 29 30 30 30 31 32 33 35 36 37 39 40 41 42 43 44 45 45 45 45 44 43 43 43 44 44 44 44 45 45 43 40 39 38 35 33 30 27 25 21 18 15 12 10 8 5 3 0 3 4 5 8 10 12 14 15 16 17 19 20 21 22 22 21 21 22 23 22 22 22 23 25 27 28 28 29 30 31
26 26 27 27 26 27 27 27 28 28 28 28 29 29 30 31 33 35 36 38 39 41 42 44 44 46 47 47 45 44 44 44 44 45 45 45 46 47 46 44 41 39 37 35 32 29 27 24 20 17 14 12 11 9 7 4 1 1 3 6 9 11 13 15 16 16 17 19 21 22 21 20 20 20 20 19 19 20 21 23 24 25 27 29 30 30
25 26 27 27 26 26 26 26 27 27 26 26 27 27 28 28 30 32 33 35 37 38 40 43 44 46 47 47 46 45 45 45 45 45 46 46 46 47 48 47 45 42 38 37 35 32 30 26 22 18 15 14 14 13 11 8 5 2 1 4 8 11 13 14 15 16 16 18 20 22 21 20 19 18 18 18 18 19 20 22 23 24 26 28 29 29
26 26 27 26 26 26 26 26 26 26 25 25 25 26 27 28 28 30 31 32 34 35 38 41 43 46 47 47 47 47 47 46 46 46 46 47 48 48 49 50 49 45 41 39 38 36 34 32 28 26 24 23 21 17 15 13 10 7 4 3 5 10 12 14 15 16 17 18 19 20 21 20 18 17 17 17 18 19 20 21 23 24 26 27 28 27
25 25 26 26 26 26 27 26 26 26 26 25 25 26 27 28 28 29 29 30 31 33 35 38 42 45 45 46 48 48 49 49 48 48 48 48 49 49 50 52 52 48 44 42 42 39 37 35 33 31 31 31 28 22 19 17 14 12 9 6 4 7 11 13 15 16 17 18 19 20 20 19 18 17 16 16 17 18 19 21 23 24 25 25 25 25
25 25 25 25 25 26 27 26 26 27 27 26 26 27 28 28 29 29 29 29 30 31 33 36 40 42 43 45 48 49 50 51 51 50 49 49 50 51 52 53 53 51 47 45 44 42 39 38 35 33 33 32 30 25 21 20 18 16 13 10 7 5 8 12 14 16 17 18 19 20 20 18 17 16 16 16 17 17 18 20 21 23 23 23 22 22
26 26 25 25 25 26 27 27 28 28 28 28 28 29 30 30 30 30 30 30 31 31 32 34 37 39 41 44 47 49 51 52 53 52 51 49 50 52 53 55 55 54 52 49 47 44 41 40 38 36 34 34 32 28 24 22 22 20 17 15 13 9 7 10 13 16 17 18 19 19 19 19 18 16 16 16 17 17 18 18 20 21 21 20 19 19
29 28 27 26 26 27 28 29 29 30 30 30 31 31 32 32 32 32 31 31 31 31 32 34 36 37 39 42 46 48 50 53 54 54 53 51 51 52 54 56 57 57 56 53 50 47 43 42 41 39 37 36 36 33 29 26 25 23 21 19 17 15 11 10 11 14 16 17 18 19 19 19 18 18 17 17 17 17 18 19 19 20 19 17 16 16
31 31 30 30 30 30 31 32 32 31 31 33 33 34 33 34 34 33 33 33 32 32 33 35 36 37 39 41 43 46 49 52 54 54 55 54 52 52 54 56 58 59 58 56 54 51 47 44 43 42 40 39 39 37 32 29 27 25 24 21 19 18 16 13 11 12 15 17 18 18 19 19 19 19 18 18 18 18 19 20 20 20 17 15 13 15
31 32 33 34 34 34 35 35 34 34 35 36 36 36 36 36 36 35 34 34 34 34 35 36 37 38 39 40 42 45 48 51 53 55 55 55 54 53 54 56 58 60 61 60 58 55 51 47 46 45 43 42 41 39 35 31 29 28 26 24 21 19 18 17 15 13 14 16 17 18 18 19 19 19 19 20 20 20 20 21 21 20 18 15 14 16
29 30 33 35 36 37 38 37 37 38 38 39 39 40 39 39 37 36 35 34 35 35 36 37 38 38 39 40 41 43 46 49 51 54 56 56 56 56 56 57 58 59 61 62 62 59 55 51 49 48 46 45 43 41 38 35 32 30 29 27 25 23 20 18 18 16 15 15 16 17 18 18 18 19 20 20 21 22 22 22 22 21 19 16 16 17
29 29 31 33 35 37 37 37 38 40 41 42 42 42 41 40 39 37 35 35 36 36 37 37 38 38 38 39 41 42 45 47 50 53 56 57 58 58 58 58 59 60 61 62 63 62 58 54 51 51 50 48 46 44 42 39 35 33 31 30 29 28 25 21 19 18 17 16 15 16 16 17 18 18 19 20 21 22 22 22 22 21 20 18 18 18
34 33 32 32 32 32 32 34 37 39 41 42 41 41 40 39 38 36 35 35 36 37 37 37 38 38 39 39 40 41 44 46 49 52 55 58 59 59 60 60 59 61 62 62 62 63 60 56 52 52 53 51 48 46 45 42 39 36 34 33 31 30 29 26 23 20 19 18 17 16 15 16 17 18 18 19 20 20 20 21 21 21 20 19 19 19
38 38 36 34 33 32 31 32 33 35 37 37 36 36 37 37 36 36 35 35 36 36 37 38 39 39 40 40 40 41 43 46 48 51 54 57 59 60 61 62 61 61 63 64 64 63 62 59 54 53 54 53 50 48 46 44 41 38 36 35 32 32 31 30 28 25 22 21 19 18 17 17 16 16 17 17 17 17 18 18 19 19 18 17 17 18
42 42 40 38 37 36 34 33 33 33 33 33 33 33 34 34 35 35 36 36 37 37 38 39 40 41 40 41 41 42 44 47 48 50 52 55 59 61 62 63 63 63 63 66 67 65 64 63 59 55 55 54 52 50 49 46 44 41 39 37 35 34 33 32 31 29 27 24 22 21 21 21 19 18 17 16 15 15 15 16 16 17 16 16 16 17
44 44 44 43 42 40 39 38 37 36 35 34 34 34 34 35 36 37 37 38 39 40 40 40 41 41 40 41 41 42 44 47 49 50 51 53 57 60 62 64 65 65 65 67 70 70 67 66 63 60 58 57 55 53 51 49 47 44 42 40 38 36 34 34 34 33 31 28 26 25 25 24 23 22 20 19 17 16 15 15 16 16 16 15 16 17
45 45 46 45 44 43 42 41 40 39 38 37 36 36 37 38 39 39 40 41 42 43 43 42 41 41 40 41 41 41 43 46 48 50 51 53 56 59 62 64 66 67 68 69 72 73 71 67 65 64 62 60 59 56 54 52 49 47 45 43 42 39 36 35 35 35 34 33 31 30 29 27 26 25 24 23 22 21 20 19 19 19 18 17 17 18
46 45 45 45 44 43 41 40 40 39 39 38 38 38 39 39 40 40 41 42 43 44 45 43 41 40 40 40 40 40 41 43 45 48 50 53 56 58 62 64 67 69 70 70 72 75 74 71 67 66 64 63 61 59 57 54 52 49 48 46 45 43 41 39 38 37 36 36 35 34 33 32 30 29 27 26 25 24 24 23 23 22 21 21 21 21
46 45 44 44 43 40 38 36 35 36 37 37 37 38 38 37 38 39 40 41 42 44 44 42 39 38 38 38 37 37 37 40 42 45 48 52 56 58 61 64 66 69 71 71 71 74 76 75 72 69 66 65 64 62 59 58 56 53 50 49 48 48 46 43 41 39 37 37 36 36 36 35 34 32 30 29 27 27 26 26 25 25 25 25 25 24
47 45 44 45 43 40 36 31 29 31 34 35 36 35 34 34 35 36 37 39 40 42 41 38 36 35 34 34 34 34 35 37 39 42 46 49 53 57 60 63 66 68 70 72 72 73 75 77 76 73 70 68 66 64 62 60 59 57 54 51 51 50 49 47 44 42 40 38 37 37 37 36 35 34 32 31 30 30 29 29 29 29 29 28 27 26
48 45 45 45 43 40 36 29 26 28 32 34 33 32 32 32 33 34 36 37 38 38 37 33 31 30 31 31 32 32 33 35 37 41 44 47 50 54 58 62 64 67 69 72 73 73 74 76 76 75 74 71 69 67 66 63 62 60 57 55 53 52 50 49 47 45 43 41 40 39 37 36 34 34 34 34 32 31 31 31 31 31 31 30 30 30
49 47 45 44 42 39 36 31 26 27 30 32 31 30 31 32 32 33 35 36 35 33 31 29 28 28 29 31 32 32 33 33 36 39 43 45 47 51 56 60 63 66 68 71 73 74 75 76 77 77 76 74 72 70 68 67 64 62 60 58 56 54 52 51 50 49 47 45 43 40 38 36 35 35 36 36 34 31 31 31 31 32 33 33 33 33
50 48 45 42 41 39 37 33 28 27 28 30 30 29 31 33 32 33 34 33 30 28 27 27 28 28 29 30 32 33 33 33 35 38 41 43 45 48 52 57 61 65 67 70 73 75 76 77 78 79 78 77 74 72 71 70 67 65 63 62 60 58 55 54 54 52 51 48 45 42 40 39 38 38 38 39 37 34 33 33 33 34 35 36 35 36
50 48 44 41 40 40 38 34 31 29 29 28 28 28 32 33 32 32 33 30 26 26 27 28 28 27 27 28 29 30 31 32 34 36 39 41 43 45 48 53 58 62 66 68 71 75 77 78 79 80 80 80 77 74 72 71 70 69 67 65 64 62 59 56 54 53 52 51 48 44 42 42 41 40 40 40 38 36 36 36 36 37 38 37 37 39
51 48 43 40 40 40 38 35 33 31 29 28 26 28 32 33 32 32 31 28 26 27 28 27 26 25 25 24 25 26 27 29 31 34 36 38 40 42 45 49 54 59 64 67 70 73 76 78 80 81 82 82 81 78 75 73 73 72 71 69 68 66 62 58 54 54 53 52 50 47 44 43 42 41 40 40 39 38 39 40 40 41 41 41 40 40
51 46 43 41 41 39 37 36 34 33 31 28 27 29 34 34 33 32 30 28 27 27 27 25 23 22 20 18 19 20 22 24 28 30 33 34 37 39 42 46 51 56 60 65 68 71 75 78 80 81 83 84 84 81 78 76 75 75 74 73 71 69 65 61 57 56 56 54 51 49 47 44 43 42 41 41 41 41 41 41 40 41 43 46 45 43
49 46 43 41 40 38 37 36 35 35 33 29 27 31 35 35 33 31 29 28 27 27 25 22 19 15 12 11 11 12 14 18 22 26 29 31 33 36 39 43 47 52 57 62 66 69 73 77 79 81 83 85 86 85 82 80 78 77 76 76 74 71 68 65 61 59 59 57 53 52 50 47 44 43 43 43 43 43 43 43 43 43 44 46 47 46
48 44 42 40 38 38 37 36 36 36 33 28 30 35 36 34 32 30 28 27 26 25 23 18 14 11 9 7 6 5 6 9 14 19 24 27 30 33 37 40 44 48 53 58 63 68 71 75 78 81 82 84 86 87 86 84 81 79 78 78 76 73 71 68 65 63 62 60 57 55 54 50 45 44 45 46 45 43 44 46 47 47 48 48 48 49
45 42 40 38 37 37 37 37 37 36 31 29 33 36 35 32 30 28 27 26 26 24 20 16 14 12 9 7 4 3 2 3 5 10 16 22 27 30 33 36 40 44 49 54 60 65 69 73 76 80 82 84 85 88 88 87 85 83 81 79 77 76 73 71 68 66 65 63 60 58 56 54 50 48 48 48 46 44 45 48 50 51 52 53 53 52
42 40 38 36 35 36 37 36 36 34 30 31 35 35 33 31 30 28 28 27 25 22 19 17 15 13 11 9 7 5 4 3 3 5 9 15 21 26 30 32 35 40 45 50 56 61 66 71 74 77 81 83 85 86 89 90 89 87 83 80 79 78 77 74 71 69 68 66 63 59 56 54 53 52 51 49 47 44 46 50 52 53 55 57 56 54
42 39 37 35 35 36 35 35 34 32 32 34 36 34 32 31 30 30 29 27 24 22 21 19 17 15 13 12 10 8 7 6 5 5 7 10 14 19 25 28 32 35 39 45 50 56 62 68 72 75 79 82 84 85 88 90 91 90 87 84 81 79 77 76 73 71 70 67 65 63 60 57 55 55 54 52 48 46 48 53 54 55 57 58 58 58
40 37 36 35 34 34 34 34 33 33 35 36 35 33 31 30 31 31 29 26 25 24 22 20 18 16 15 13 12 11 10 8 8 8 9 9 10 13 17 22 27 31 35 39 44 50 57 63 69 73 76 80 83 85 86 88 90 91 90 88 85 82 79 77 75 72 70 69 67 66 65 63 62 60 58 57 54 52 54 58 60 60 61 60 60 62
37 35 34 34 34 34 34 33 33 35 36 35 33 32 31 31 32 31 29 27 25 24 22 20 18 16 15 14 13 12 11 11 11 11 11 11 11 11 12 16 20 25 30 34 38 43 50 57 64 69 73 77 80 84 85 86 88 89 90 90 88 85 82 80 77 74 71 70 69 66 63 63 65 65 64 63 63 62 62 63 64 65 65 64 63 64
35 35 35 34 34 34 34 33 34 35 36 35 33 33 32 32 32 31 29 27 26 24 21 20 18 17 15 14 13 12 12 12 13 14 14 14 13 12 11 13 15 19 24 28 32 37 42 49 56 64 70 74 77 81 84 85 86 86 88 89 89 88 86 83 80 76 73 71 71 69 66 63 63 64 66 67 69 70 70 69 68 69 69 69 68 67
36 36 35 35 36 36 35 34 35 36 37 36 34 33 33 32 32 31 29 27 26 24 22 20 19 18 16 15 14 13 13 13 14 15 16 17 16 15 14 13 13 14 17 21 26 31 36 41 48 56 64 70 74 78 81 83 85 85 85 86 86 87 86 84 82 79 76 73 72 72 73 72 69 66 66 69 71 72 73 74 73 73 73 73 73 72
Wind_Direction
228 229 230 230 230 231 233 234 234 233 233 233 233 233 233 233 232 233 232 231 231 230 230 230 230 232 234 234 231 231 233 231 235 246 256 262 266 266 273 291 309 328 346 353 1 8 5 6 13 18 21 26 30 33 40 47 47 49 58 67 71 72 70 69 68 67 67 67 71 74 75 74 72 71 72 80 90 96 100 108 114 115 116 118 121 122
229 229 230 229 229 229 230 233 234 234 234 234 233 233 233 233 233 233 233 232 231 231 231 231 231 232 234 236 234 233 236 239 239 244 249 253 259 258 256 274 293 314 338 346 358 8 7 4 9 17 21 26 32 34 37 46 50 48 51 59 66 68 67 68 69 70 72 74 75 76 75 73 71 69 73 85 94 98 105 111 112 112 115 120 122 123
229 229 229 229 228 227 228 230 232 232 233 233 233 233 234 234 234 234 234 233 231 231 231 231 232 233 234 236 236 235 236 240 242 243 245 245 253 258 249 253 277 296 325 338 354 6 8 6 7 15 21 25 31 36 37 43 50 51 49 52 62 67 69 70 71 74 77 79 79 77 74 72 72 71 73 86 96 102 109 114 112 112 117 121 123 124
230 230 230 229 229 228 227 227 229 230 231 231 231 232 232 232 232 232 233 232 231 230 230 230 231 232 234 235 236 238 237 240 242 242 242 241 248 257 250 242 264 280 308 330 347 0 6 8 6 13 21 24 30 37 40 42 48 53 53 54 60 66 70 72 73 77 81 81 80 77 74 73 74 75 77 89 99 105 112 117 115 114 118 123 125 126
231 230 230 230 229 228 227 226 227 228 229 229 230 230 231 231 231 232 232 232 231 230 229 229 229 230 232 233 234 237 237 238 240 241 240 237 242 253 250 238 250 264 285 316 334 351 2 9 7 12 20 24 28 37 42 45 48 53 58 60 61 62 67 74 78 82 84 83 81 79 80 79 78 78 83 94 104 108 113 120 120 117 120 125 127 129
231 231 231 230 230 230 229 228 227 228 228 228 229 229 230 231 231 231 232 232 232 232 231 230 230 229 230 231 232 234 236 236 237 239 238 235 236 246 247 235 237 251 265 294 313 336 355 8 9 12 20 24 27 35 44 48 50 55 61 65 66 64 67 75 85 90 89 86 84 86 87 85 82 84 89 98 106 110 113 121 124 121 122 126 129 131
231 231 231 231 231 230 230 229 228 228 229 228 228 228 230 230 231 232 232 231 232 232 232 231 230 230 231 231 231 232 233 234 234 235 236 234 232 239 244 235 229 241 249 268 288 311 340 3 10 12 20 25 27 33 43 49 52 55 61 69 74 72 71 77 87 96 98 91 87 90 89 86 87 90 94 99 105 111 115 121 125 125 125 128 132 133
231 231 231 231 231 231 231 231 230 229 229 229 228 228 229 229 230 232 232 231 232 232 233 232 231 231 231 232 231 231 232 232 232 232 232 231 230 235 241 235 226 234 242 252 267 281 310 351 8 13 19 25 28 32 41 50 55 58 60 69 80 82 77 76 84 94 100 97 93 92 90 89 91 95 99 102 106 113 118 122 126 127 128 131 134 134
230 230 231 231 231 231 231 231 231 230 229 230 229 228 228 228 229 230 230 230 230 231 232 231 231 230 230 230 231 231 231 231 231 230 229 229 230 232 236 234 225 227 236 244 253 261 272 321 3 12 18 25 28 32 40 50 57 61 63 69 80 90 86 79 81 90 98 101 99 95 92 93 95 99 104 107 109 114 119 123 126 127 129 132 134 134
230 230 231 231 232 232 231 231 231 231 231 230 230 229 228 228 228 228 229 230 230 230 230 230 230 230 228 228 228 228 229 230 231 230 228 229 232 231 230 231 227 224 229 236 242 246 246 260 341 9 16 24 29 32 39 49 58 65 70 72 78 91 95 87 84 92 100 102 99 96 97 99 100 103 107 110 113 116 120 123 125 126 129 132 133 132
230 230 230 230 231 232 232 232 232 232 232 232 231 230 229 229 229 229 229 230 231 231 231 230 230 230 229 228 227 226 226 227 229 229 227 227 229 229 226 226 227 225 224 228 231 233 230 229 248 2 14 21 29 32 37 48 60 67 75 81 82 89 99 98 93 98 103 102 99 102 105 105 104 104 105 108 112 116 119 122 124 126 129 131 132 131
231 230 230 230 229 230 231 232 232 232 232 232 232 232 230 230 230 229 229 229 230 232 232 231 231 231 230 229 228 227 226 225 226 226 225 224 224 224 223 222 225 225 222 222 224 222 218 217 214 209 9 17 28 33 36 46 61 70 80 90 93 91 98 105 105 105 107 104 104 110 112 109 106 106 105 107 110 113 117 119 122 126 129 131 131 130
231 230 231 230 229 228 229 230 231 231 232 232 232 232 231 231 231 231 230 229 229 230 232 232 231 231 231 230 230 228 227 226 225 224 223 220 218 220 221 221 223 225 221 219 221 217 211 209 204 193 209 3 25 35 36 43 60 76 85 95 101 100 100 108 113 114 112 109 113 118 118 113 109 108 109 110 112 114 116 118 122 126 129 131 131 130
230 230 231 231 229 228 228 228 229 230 231 232 232 232 232 232 232 232 232 230 229 228 230 231 231 231 230 230 230 229 227 226 225 224 222 219 216 217 220 221 223 225 220 217 220 216 208 204 199 194 198 233 8 34 39 42 56 79 94 101 108 109 107 111 117 119 116 115 121 126 123 118 113 111 113 115 116 118 121 123 126 128 130 131 131 131
231 230 231 230 229 227 227 227 227 228 230 231 232 233 233 233 232 233 233 232 230 228 228 229 230 230 230 229 229 229 228 226 225 224 222 219 215 215 218 221 224 224 219 215 218 216 209 201 195 194 197 208 248 15 43 44 53 77 101 111 115 118 117 118 121 123 121 120 126 131 128 122 117 116 117 119 120 121 124 127 129 131 132 132 132 131
232 231 230 230 229 227 228 228 227 227 228 230 231 232 232 233 232 233 234 234 233 230 228 228 229 229 229 229 229 228 228 226 224 223 221 219 216 215 217 221 224 223 219 215 215 215 210 202 194 192 194 200 219 243 29 49 51 71 103 120 124 125 127 127 126 126 126 127 131 135 133 127 123 122 123 123 123 124 127 130 132 132 133 134 133 132
232 232 230 230 229 228 228 229 228 227 227 228 229 230 231 232 232 233 234 234 234 232 230 229 228 228 229 229 228 228 228 227 225 224 222 220 217 216 217 219 221 222 219 217 215 213 210 204 195 192 192 196 208 226 234 164 56 64 101 127 135 134 135 136 134 131 131 133 137 140 139 135 131 130 130 128 127 129 132 135 137 136 135 137 136 135
231 231 231 229 229 229 228 229 229 228 227 228 229 229 230 231 232 232 233 234 234 233 232 231 229 228 229 229 228 228 228 227 225 224 223 221 219 217 216 217 218 219 219 218 216 213 211 206 197 193 191 194 202 213 221 222 193 71 95 129 143 145 144 145 143 139 136 137 142 145 146 142 138 138 138 136 133 134 136 138 140 142 141 141 140 139
230 227 228 228 227 227 228 229 230 228 228 229 230 230 229 230 231 231 232 233 234 233 233 232 230 229 228 228 228 228 228 227 225 223 222 222 220 218 216 216 216 217 218 219 218 214 211 206 200 198 200 203 209 209 211 218 216 201 142 134 148 154 154 152 151 149 145 143 145 149 151 149 145 142 144 143 140 139 139 139 140 143 144 144 144 143
232 226 225 225 225 226 228 228 230 230 229 229 231 232 231 230 230 230 231 233 233 234 234 233 232 230 228 227 228 228 228 228 226 224 222 221 220 218 216 215 215 216 216 218 218 215 210 205 201 201 204 208 211 208 205 209 211 207 204 180 158 161 163 162 159 158 156 153 152 153 154 154 151 148 147 148 146 143 142 141 141 143 145 146 147 148
233 228 224 223 223 226 228 228 230 232 231 231 233 236 237 235 232 230 231 233 234 235 236 235 234 231 229 227 226 226 226 227 227 225 222 220 219 218 216 214 215 215 214 216 218 216 211 207 204 202 204 208 209 206 201 201 204 206 203 201 187 169 169 171 168 164 163 162 160 159 158 157 156 155 153 153 152 149 146 144 144 147 149 150 150 152
232 230 227 224 223 226 229 230 231 233 234 233 233 236 239 241 239 235 233 233 235 236 237 238 236 233 230 228 226 225 225 225 226 226 224 221 219 218 216 214 213 214 214 214 216 215 212 209 207 206 208 210 211 207 201 199 202 204 200 200 205 191 174 175 176 172 169 168 168 167 165 163 162 162 161 160 160 158 154 150 149 151 154 156 156 154
233 232 230 228 227 228 231 232 232 234 236 235 234 234 236 239 242 242 239 236 236 237 239 240 239 236 232 230 227 226 225 224 225 225 225 222 219 218 217 214 212 212 213 213 214 214 212 210 209 209 209 210 211 211 204 200 202 204 200 198 201 203 192 182 182 181 178 175 174 173 172 170 168 167 167 168 168 168 165 160 156 155 157 159 157 153
233 233 233 232 232 234 235 236 235 236 238 239 237 235 234 234 238 241 242 241 239 238 240 242 242 239 235 232 229 227 226 225 225 224 225 224 221 219 218 216 213 211 211 213 214 213 213 212 210 210 211 210 211 211 207 201 201 203 203 200 197 198 200 196 187 185 184 182 181 179 178 175 173 171 171 171 171 172 173 170 165 161 161 161 158 158
233 233 233 234 234 237 239 240 239 239 241 243 242 239 237 235 236 238 241 244 243 242 241 243 243 241 238 235 231 228 226 226 226 224 224 224 223 221 219 218 215 212 211 213 215 214 213 213 212 212 212 212 211 210 208 203 201 203 206 205 202 198 197 198 194 188 187 187 187 186 184 182 179 176 175 175 175 176 177 178 176 174 173 171 168 173
236 233 233 234 234 235 238 240 242 242 243 245 245 245 243 241 239 238 240 243 245 245 244 243 243 242 240 237 234 230 227 226 226 225 224 223 223 222 221 219 218 215 213 214 216 216 214 212 214 214 212 213 213 210 208 206 202 203 205 206 208 207 200 196 194 191 190 189 190 191 189 187 185 183 181 180 180 181 182 185 187 189 190 188 183 187
241 237 234 234 233 234 235 237 241 244 245 245 246 247 247 247 244 242 242 243 245 245 244 244 245 243 242 241 237 233 230 226 225 226 225 223 222 222 222 220 218 217 215 215 216 217 215 212 214 216 214 212 213 211 210 208 204 203 204 204 207 212 210 202 195 192 190 188 189 192 193 191 190 188 188 187 187 188 189 191 194 199 201 197 191 192
244 240 236 234 233 233 234 236 239 243 245 246 247 248 249 250 249 246 245 245 245 244 244 246 247 246 244 243 241 237 234 229 225 225 225 224 222 220 221 221 219 217 216 215 216 217 216 213 214 218 217 214 212 212 211 210 206 204 204 204 205 208 210 210 204 197 191 186 184 187 190 192 194 194 193 193 194 194 195 197 199 203 203 198 195 197
242 240 238 236 235 234 233 234 236 239 242 245 248 250 251 251 251 249 247 244 243 244 245 248 250 249 247 244 242 239 237 233 228 224 224 225 223 220 220 221 220 218 215 214 216 217 216 212 212 217 219 217 214 213 212 210 208 206 205 205 206 208 208 209 209 206 198 190 184 182 183 188 193 196 197 199 200 200 200 202 204 207 206 200 199 203
241 241 239 239 238 235 233 232 233 236 240 244 247 250 252 253 253 251 249 245 243 244 246 249 251 251 250 247 242 239 237 236 232 227 224 224 224 222 220 219 220 219 216 214 215 217 216 211 208 214 219 219 216 215 213 211 210 209 208 206 206 208 210 210 210 210 208 201 192 186 185 187 189 192 196 199 202 204 207 211 213 215 215 210 209 212
241 242 242 242 241 240 237 236 235 235 238 242 245 247 251 253 254 253 251 249 247 247 248 251 252 251 250 248 244 239 237 235 233 230 225 223 224 223 221 219 219 219 217 214 213 215 215 211 207 210 217 219 218 217 214 211 210 212 211 208 208 209 210 211 211 211 211 209 204 198 196 194 192 193 195 196 198 203 209 215 221 225 227 225 224 226
241 243 244 243 243 243 242 242 240 240 240 242 245 248 250 253 254 253 253 253 252 251 251 251 253 252 250 248 245 240 237 235 233 231 227 224 223 223 222 220 219 218 217 215 213 213 214 212 209 209 214 218 219 218 216 212 212 214 213 212 212 211 210 212 213 213 212 211 211 210 208 204 201 200 200 200 201 204 209 215 220 224 227 228 229 232
241 243 244 244 244 243 243 244 244 244 244 244 246 249 252 254 254 254 254 254 254 254 253 252 252 252 251 248 244 240 237 236 234 231 228 225 223 222 222 221 219 218 217 216 214 213 213 213 211 210 213 217 219 219 218 215 213 213 214 213 213 213 212 213 214 214 214 212 212 214 216 214 212 209 208 207 207 209 212 217 222 225 227 228 229 231
242 244 245 246 246 244 243 244 245 246 247 246 247 249 251 252 253 253 253 252 253 254 253 252 251 251 251 248 244 240 237 236 235 233 230 227 224 222 222 221 219 218 218 217 216 215 213 213 213 213 213 216 218 219 219 218 216 214 213 214 214 213 213 214 214 215 215 214 213 215 217 218 218 218 216 214 214 214 217 221 225 229 231 233 234 235
242 244 247 249 250 250 248 246 246 248 249 249 248 249 249 249 249 249 249 249 250 251 252 251 251 249 248 247 245 242 238 236 236 235 233 229 225 222 221 221 221 219 218 217 217 216 216 215 214 215 215 216 217 218 219 220 221 218 215 215 215 213 213 214 215 216 216 215 215 217 218 220 221 222 222 222 222 222 224 226 229 232 234 237 239 239
241 243 246 250 254 257 257 251 245 246 248 248 247 247 248 247 246 246 245 245 246 248 249 249 248 246 245 245 244 244 242 239 237 236 234 231 227 224 222 221 221 220 219 218 217 217 217 217 216 215 217 217 217 217 218 220 222 222 218 215 214 215 214 214 215 217 218 217 217 218 219 220 222 223 224 225 225 226 228 230 232 234 236 239 241 243
240 242 245 250 255 258 259 253 242 242 245 247 247 247 247 246 245 244 243 242 243 246 247 246 244 244 247 248 247 246 244 243 241 239 236 233 229 226 224 222 221 221 220 218 218 217 217 218 217 216 216 218 218 217 217 219 221 222 221 217 215 214 215 216 217 217 218 219 220 220 221 222 223 224 225 224 224 225 228 230 233 235 237 239 240 242
239 241 244 249 254 257 257 253 243 238 242 245 245 246 246 245 243 241 241 241 240 242 244 244 244 246 250 253 253 250 246 244 243 242 239 235 231 228 226 223 221 221 221 219 218 217 217 217 217 216 215 217 218 218 217 218 219 221 221 221 218 215 214 217 219 219 219 220 221 222 223 224 225 227 229 230 230 229 230 232 234 237 238 239 239 241
236 240 243 247 251 254 254 253 249 244 243 243 242 240 241 241 239 236 236 236 235 236 240 244 247 250 253 255 255 253 249 244 241 241 240 238 233 229 227 225 223 221 221 220 218 218 217 217 217 216 214 215 217 218 217 217 217 219 221 222 222 220 217 216 218 219 219 220 221 223 225 226 228 230 233 235 235 233 233 235 237 239 240 239 240 242
233 238 242 245 247 249 250 251 251 250 247 245 242 239 239 238 234 230 229 229 227 230 236 242 247 252 254 255 255 254 250 245 241 239 239 238 236 232 229 227 224 222 221 221 219 218 217 217 217 216 214 214 216 218 218 217 217 219 221 222 224 224 222 219 219 219 220 220 221 224 227 227 229 232 235 237 236 236 237 239 242 244 243 243 244 246
231 236 239 241 242 244 248 250 251 251 250 247 243 239 237 234 227 222 222 221 220 225 233 239 243 247 249 250 251 251 249 246 242 239 238 237 236 234 231 228 226 223 221 221 220 219 218 217 217 217 216 214 215 217 218 219 219 219 221 223 224 225 225 223 220 218 219 221 222 224 226 226 229 233 237 239 240 241 240 241 244 246 247 249 252 253
229 232 235 236 238 241 245 248 250 252 252 248 241 235 233 229 222 217 217 217 218 223 230 234 236 239 242 244 245 248 247 244 242 240 239 237 236 234 232 230 227 225 222 221 220 220 219 218 217 217 217 215 215 216 217 219 220 221 221 222 224 226 226 225 223 219 219 221 223 225 225 225 229 235 239 241 243 245 244 244 246 248 249 251 254 254
226 229 231 232 235 239 243 247 250 252 251 246 235 228 226 222 217 215 215 216 218 221 224 225 227 229 232 235 240 245 246 244 241 239 239 238 236 235 233 230 228 226 223 221 220 220 220 219 218 218 218 217 216 216 217 218 219 221 222 222 224 225 226 227 226 223 222 223 226 227 226 227 231 237 240 242 245 248 251 253 253 252 252 254 255 255
224 227 228 229 233 238 242 245 248 250 249 240 226 221 220 218 216 216 215 214 213 213 213 212 210 211 213 220 232 246 252 248 243 239 238 238 238 236 234 231 229 227 225 222 220 220 220 220 219 219 218 218 217 217 217 218 218 219 221 222 224 225 226 227 228 227 226 227 229 229 228 229 233 237 241 242 245 249 254 256 256 256 256 257 257 256
223 225 225 227 231 236 240 243 245 246 243 231 220 217 217 216 216 215 212 208 206 204 202 200 200 204 208 214 226 244 273 279 261 246 239 237 238 238 236 233 231 229 227 225 222 220 220 220 220 219 219 219 219 218 218 219 220 219 219 221 223 225 226 227 229 230 231 231 232 231 230 230 231 235 241 244 245 247 251 254 256 257 258 258 257 254
222 223 224 226 230 235 238 241 242 241 234 222 216 215 216 215 213 210 206 201 198 197 198 199 201 205 209 216 225 235 249 274 287 274 254 243 239 239 238 236 234 232 230 227 224 222 220 220 220 220 220 220 220 219 219 220 221 221 220 219 221 224 226 228 230 231 232 233 232 232 231 231 232 234 238 242 243 242 245 251 254 255 256 256 256 254
220 221 222 224 229 233 236 238 238 233 224 217 214 215 215 212 207 203 201 197 195 196 199 202 204 207 211 218 225 229 234 242 256 272 275 266 253 246 242 239 237 236 234 231 228 225 222 221 220 221 220 220 220 221 220 220 221 223 223 221 221 222 225 227 229 230 231 232 232 232 231 232 233 234 236 239 238 236 237 242 246 249 251 253 254 253
219 220 221 224 227 230 233 233 230 223 217 214 214 215 213 208 202 201 199 197 197 200 202 203 206 210 214 221 226 230 233 236 242 253 266 273 272 263 252 245 241 239 237 235 232 229 226 223 222 221 221 221 221 222 222 221 221 223 224 224 224 223 224 225 227 228 230 231 232 232 233 234 235 235 235 235 234 233 233 236 239 242 246 249 251 251
218 219 221 224 225 227 228 227 222 216 214 214 215 213 209 204 201 201 201 200 202 204 204 206 210 214 218 224 230 234 238 240 243 249 256 264 270 273 267 258 248 243 240 239 237 234 230 227 224 223 222 222 222 222 223 223 223 223 224 225 226 226 226 225 226 227 228 230 231 231 232 234 236 235 234 234 234 233 234 237 239 241 244 246 248 250
217 218 219 221 223 224 224 220 215 213 213 214 214 211 206 202 202 202 202 204 207 209 210 213 216 218 222 228 233 240 244 245 247 250 255 260 266 269 271 269 262 252 246 242 240 238 235 232 228 226 224 223 223 223 224 224 224 224 224 225 226 227 227 227 227 227 227 229 230 231 230 231 232 232 231 233 235 235 236 239 242 244 245 245 247 250
216 218 217 217 219 220 219 215 211 212 213 214 212 208 204 202 202 202 204 209 213 214 216 219 221 221 225 230 236 244 250 252 253 254 255 259 263 266 268 272 272 267 260 251 246 242 239 236 233 229 226 224 224 224 224 224 225 225 225 225 226 227 227 228 228 228 228 229 229 230 231 232 232 232 232 233 235 236 238 240 242 244 244 245 246 247
Height
10878 10880 10883 10886 10890 10893 10895 10897 10900 10902 10904 10908 10910 10913 10915 10918 10920 10922 10924 10927 10930 10933 10936 10938 10940 10941 10943 10946 10949 10950 10952 10954 10955 10956 10958 10959 10959 10960 10960 10961 10962 10961 10960 10960 10958 10956 10955 10953 10952 10950 10948 10946 10943 10941 10939 10938 10937 10937 10936 10934 10934 10933 10932 10931 10931 10930 10930 10929 10929 10928 10928 10928 10927 10927 10926 10926 10926 10926 10925 10926 10926 10926 10926 10927 10928 10929
10874 10877 10879 10882 10886 10889 10891 10893 10896 10899 10901 10904 10907 10909 10912 10914 10917 10919 10921 10924 10927 10930 10932 10935 10937 10938 10940 10942 10946 10948 10950 10951 10953 10955 10956 10958 10959 10959 10960 10960 10961 10961 10960 10960 10959 10957 10956 10955 10954 10952 10950 10948 10945 10943 10941 10939 10938 10938 10937 10936 10935 10934 10933 10933 10932 10932 10931 10931 10930 10930 10929 10929 10929 10928 10928 10928 10928 10928 10928 10928 10929 10928 10928 10929 10930 10932
10870 10872 10875 10878 10881 10885 10888 10890 10892 10895 10898 10900 10903 10906 10908 10911 10914 10916 10918 10921 10924 10927 10929 10931 10933 10935 10937 10939 10942 10945 10947 10949 10951 10953 10955 10956 10958 10958 10959 10959 10959 10960 10961 10960 10959 10958 10957 10956 10955 10953 10951 10949 10947 10944 10942 10941 10939 10939 10938 10938 10937 10936 10935 10934 10934 10933 10933 10932 10932 10931 10931 10931 10930 10929 10929 10929 10929 10929 10930 10931 10931 10930 10930 10931 10933 10935
10866 10868 10871 10873 10877 10880 10883 10885 10888 10890 10893 10896 10899 10902 10904 10906 10909 10911 10913 10916 10919 10922 10925 10927 10929 10931 10933 10936 10939 10942 10945 10947 10949 10951 10953 10955 10956 10956 10957 10958 10958 10960 10960 10960 10960 10959 10958 10957 10956 10954 10952 10950 10948 10946 10944 10942 10941 10940 10940 10939 10938 10937 10937 10936 10935 10935 10935 10934 10934 10933 10933 10933 10932 10931 10931 10931 10931 10931 10932 10933 10933 10933 10933 10934 10936 10938
10862 10864 10866 10869 10872 10875 10878 10880 10883 10886 10889 10892 10895 10898 10900 10902 10905 10906 10909 10912 10915 10918 10920 10923 10925 10928 10930 10933 10936 10938 10941 10944 10947 10949 10950 10953 10955 10955 10956 10957 10957 10959 10959 10959 10959 10959 10959 10958 10957 10955 10953 10951 10950 10948 10946 10944 10943 10942 10941 10941 10940 10939 10938 10938 10937 10937 10937 10936 10936 10936 10936 10935 10934 10933 10933 10933 10933 10933 10934 10935 10935 10935 10936 10937 10939 10941
10858 10860 10862 10865 10867 10870 10873 10876 10879 10882 10885 10889 10892 10894 10896 10898 10901 10903 10906 10909 10912 10914 10916 10919 10922 10925 10927 10930 10933 10935 10938 10941 10944 10946 10948 10950 10953 10954 10954 10955 10956 10958 10958 10959 10959 10959 10959 10958 10957 10956 10954 10952 10951 10949 10947 10946 10945 10944 10943 10943 10942 10942 10941 10940 10939 10939 10939 10939 10939 10938 10938 10937 10936 10936 10935 10935 10935 10936 10936 10937 10938 10938 10939 10940 10942 10944
10853 10855 10858 10860 10863 10866 10869 10872 10876 10878 10881 10884 10887 10890 10892 10895 10897 10900 10902 10905 10908 10910 10912 10915 10919 10922 10925 10927 10930 10933 10935 10938 10941 10943 10945 10947 10950 10952 10953 10954 10955 10957 10958 10958 10959 10959 10959 10958 10957 10956 10955 10953 10952 10950 10949 10947 10946 10946 10945 10945 10944 10944 10944 10942 10941 10941 10941 10941 10941 10941 10940 10939 10938 10937 10937 10937 10937 10938 10938 10939 10940 10941 10942 10943 10945 10947
10849 10851 10854 10856 10859 10862 10865 10868 10871 10874 10877 10879 10882 10886 10889 10891 10894 10896 10899 10902 10904 10906 10908 10912 10916 10919 10922 10925 10928 10930 10933 10935 10937 10940 10942 10945 10948 10950 10951 10953 10955 10956 10957 10958 10959 10959 10958 10958 10957 10957 10955 10954 10953 10951 10950 10948 10948 10947 10947 10947 10946 10946 10946 10945 10944 10943 10943 10943 10943 10943 10942 10941 10941 10940 10939 10939 10940 10940 10941 10941 10943 10944 10946 10947 10948 10950
10845 10848 10850 10853 10855 10858 10860 10863 10866 10870 10872 10874 10878 10882 10884 10887 10890 10892 10895 10897 10899 10901 10904 10908 10912 10915 10919 10922 10924 10927 10930 10932 10934 10937 10940 10943 10945 10948 10950 10951 10953 10955 10956 10957 10958 10958 10958 10958 10958 10957 10955 10954 10953 10952 10951 10949 10949 10948 10948 10948 10948 10947 10947 10947 10946 10945 10944 10944 10945 10945 10944 10944 10943 10942 10941 10941 10942 10943 10944 10945 10946 10947 10949 10950 10952 10953
10842 10844 10847 10849 10852 10854 10857 10859 10862 10865 10868 10870 10874 10877 10880 10883 10885 10888 10891 10893 10895 10897 10901 10904 10907 10910 10914 10917 10919 10923 10926 10929 10931 10935 10938 10940 10942 10945 10948 10949 10951 10954 10955 10957 10958 10958 10958 10958 10958 10957 10956 10955 10954 10953 10952 10950 10949 10949 10949 10949 10949 10949 10949 10949 10948 10948 10947 10946 10946 10947 10947 10946 10946 10945 10945 10944 10944 10945 10947 10948 10949 10950 10952 10954 10955 10957
10839 10841 10844 10846 10848 10850 10853 10856 10858 10861 10864 10866 10869 10872 10876 10879 10882 10884 10887 10889 10891 10895 10898 10900 10903 10906 10909 10912 10915 10918 10921 10924 10928 10931 10935 10937 10939 10942 10944 10947 10949 10952 10954 10955 10957 10958 10958 10958 10957 10957 10956 10955 10954 10953 10952 10951 10950 10950 10950 10950 10950 10950 10950 10950 10950 10950 10949 10949 10948 10949 10949 10949 10949 10949 10948 10947 10947 10948 10950 10951 10952 10953 10955 10957 10958 10960
10836 10838 10840 10841 10844 10846 10849 10852 10855 10857 10859 10862 10864 10867 10871 10874 10877 10880 10883 10885 10889 10892 10894 10897 10900 10903 10906 10909 10911 10914 10917 10921 10924 10927 10930 10933 10935 10938 10941 10944 10946 10949 10951 10953 10955 10957 10957 10957 10957 10957 10956 10956 10954 10953 10953 10952 10951 10951 10951 10951 10951 10952 10952 10951 10952 10952 10952 10951 10951 10951 10952 10952 10953 10953 10952 10951 10951 10952 10953 10954 10956 10957 10958 10960 10962 10963
10833 10834 10835 10837 10840 10843 10846 10848 10850 10853 10855 10857 10860 10863 10867 10870 10872 10875 10878 10882 10885 10888 10890 10893 10897 10899 10902 10905 10907 10910 10914 10917 10920 10923 10925 10929 10932 10935 10938 10941 10943 10946 10949 10951 10953 10955 10956 10956 10956 10957 10956 10956 10955 10954 10953 10953 10952 10952 10952 10952 10952 10952 10952 10953 10953 10954 10954 10954 10953 10954 10954 10955 10956 10956 10956 10955 10955 10956 10957 10958 10959 10960 10961 10963 10965 10966
10829 10831 10832 10834 10836 10840 10842 10844 10847 10849 10851 10854 10856 10859 10863 10866 10868 10871 10874 10877 10881 10884 10887 10889 10892 10895 10898 10901 10903 10906 10910 10913 10917 10920 10922 10925 10929 10932 10934 10937 10940 10943 10946 10949 10951 10953 10954 10955 10955 10956 10956 10956 10955 10954 10953 10953 10953 10952 10952 10952 10953 10953 10953 10954 10954 10955 10956 10956 10956 10956 10956 10957 10958 10959 10959 10959 10959 10959 10960 10961 10963 10964 10965 10966 10968 10969
10826 10827 10828 10830 10833 10836 10838 10840 10843 10846 10848 10850 10853 10856 10859 10862 10864 10867 10870 10872 10876 10880 10883 10885 10887 10890 10893 10896 10899 10902 10905 10909 10912 10916 10919 10922 10926 10929 10932 10934 10937 10940 10943 10946 10948 10951 10952 10953 10953 10954 10955 10955 10955 10954 10954 10953 10953 10953 10953 10953 10953 10953 10954 10954 10955 10956 10957 10958 10958 10958 10958 10959 10960 10961 10962 10962 10962 10963 10964 10964 10965 10966 10967 10969 10970 10972
10822 10823 10825 10827 10830 10833 10835 10837 10840 10842 10845 10847 10850 10853 10855 10857 10861 10864 10866 10868 10871 10875 10878 10880 10882 10885 10889 10892 10895 10898 10901 10905 10908 10911 10915 10918 10922 10926 10929 10931 10934 10937 10940 10943 10945 10948 10950 10951 10951 10952 10953 10954 10955 10954 10954 10953 10953 10953 10953 10953 10953 10954 10954 10955 10956 10956 10957 10958 10959 10960 10960 10961 10961 10963 10964 10965 10965 10966 10967 10967 10968 10969 10970 10972 10973 10974
10819 10820 10823 10825 10827 10829 10832 10834 10836 10839 10842 10844 10847 10849 10851 10854 10857 10859 10861 10864 10866 10869 10872 10875 10878 10881 10884 10887 10890 10894 10897 10901 10904 10908 10911 10915 10918 10922 10925 10928 10931 10934 10936 10940 10943 10945 10947 10948 10950 10951 10952 10953 10954 10954 10954 10953 10953 10954 10954 10954 10954 10954 10955 10955 10956 10957 10958 10959 10960 10961 10962 10962 10963 10964 10965 10966 10967 10968 10969 10970 10970 10971 10973 10974 10975 10976
10817 10818 10820 10822 10824 10826 10828 10830 10832 10835 10838 10841 10843 10846 10848 10850 10853 10855 10857 10859 10862 10864 10867 10870 10873 10876 10878 10882 10886 10890 10893 10896 10900 10903 10907 10910 10914 10917 10921 10924 10927 10930 10933 10937 10940 10943 10945 10947 10949 10950 10950 10951 10952 10953 10953 10953 10953 10954 10954 10955 10954 10954 10955 10956 10957 10957 10958 10959 10960 10962 10963 10964 10965 10965 10966 10967 10969 10970 10971 10972 10972 10973 10975 10976 10977 10978
10814 10816 10817 10819 10821 10823 10825 10827 10829 10832 10835 10837 10840 10842 10844 10846 10848 10851 10853 10855 10857 10860 10862 10864 10867 10870 10873 10877 10882 10885 10888 10891 10895 10898 10902 10906 10909 10913 10917 10920 10923 10926 10930 10934 10937 10940 10942 10944 10947 10949 10950 10951 10951 10951 10952 10953 10953 10954 10955 10955 10955 10955 10955 10956 10957 10958 10959 10960 10961 10962 10963 10964 10965 10966 10967 10968 10969 10971 10972 10973 10974 10975 10977 10978 10978 10980
10811 10813 10814 10816 10818 10820 10822 10824 10826 10829 10832 10834 10836 10838 10840 10842 10844 10847 10849 10851 10853 10855 10856 10858 10861 10864 10868 10873 10877 10881 10884 10887 10890 10893 10897 10900 10903 10907 10911 10915 10919 10922 10926 10930 10933 10936 10938 10939 10941 10943 10944 10945 10946 10948 10950 10951 10953 10953 10954 10956 10956 10956 10956 10957 10957 10958 10959 10961 10962 10963 10964 10965 10966 10967 10968 10969 10970 10972 10973 10974 10975 10977 10978 10979 10980 10981
10808 10810 10812 10814 10816 10818 10820 10822 10824 10826 10828 10831 10833 10834 10836 10838 10841 10843 10846 10848 10849 10851 10852 10853 10855 10858 10864 10868 10871 10875 10878 10881 10884 10887 10891 10895 10898 10902 10906 10910 10914 10918 10922 10925 10928 10931 10934 10936 10937 10938 10938 10939 10942 10945 10948 10949 10951 10952 10953 10955 10956 10957 10957 10957 10958 10959 10960 10961 10962 10963 10964 10966 10967 10968 10969 10970 10971 10972 10974 10975 10977 10978 10979 10980 10981 10982
10805 10807 10809 10811 10814 10816 10817 10819 10821 10823 10825 10828 10830 10831 10833 10834 10836 10839 10842 10844 10845 10847 10848 10849 10850 10854 10859 10862 10864 10868 10871 10874 10877 10881 10885 10890 10894 10897 10901 10905 10910 10914 10918 10920 10923 10927 10931 10934 10936 10937 10938 10940 10943 10945 10947 10948 10949 10950 10952 10954 10956 10957 10957 10958 10958 10959 10960 10961 10962 10963 10965 10966 10967 10968 10970 10971 10972 10973 10975 10976 10978 10979 10980 10981 10982 10984
10802 10804 10806 10808 10811 10813 10814 10816 10818 10820 10822 10824 10826 10828 10830 10831 10832 10835 10837 10839 10841 10843 10844 10845 10846 10849 10853 10855 10858 10862 10865 10868 10872 10876 10880 10885 10889 10892 10895 10899 10904 10908 10912 10915 10919 10923 10927 10930 10932 10934 10936 10939 10942 10944 10945 10947 10948 10949 10950 10951 10953 10955 10957 10958 10958 10959 10960 10961 10962 10964 10965 10966 10967 10969 10970 10971 10973 10974 10976 10977 10978 10979 10981 10982 10984 10986
10799 10801 10803 10805 10807 10809 10811 10812 10814 10816 10818 10820 10822 10823 10825 10827 10829 10830 10832 10834 10837 10839 10840 10840 10841 10844 10846 10849 10852 10856 10859 10862 10866 10871 10875 10880 10884 10887 10890 10894 10898 10903 10907 10911 10915 10919 10923 10926 10929 10931 10934 10937 10939 10941 10943 10945 10946 10947 10949 10949 10950 10952 10955 10957 10958 10959 10960 10961 10962 10964 10965 10966 10967 10968 10970 10972 10973 10975 10976 10977 10978 10979 10981 10983 10985 10987
10794 10797 10800 10802 10804 10805 10806 10808 10810 10812 10814 10815 10816 10818 10820 10822 10824 10826 10828 10830 10832 10834 10835 10835 10836 10838 10840 10843 10846 10850 10853 10857 10861 10866 10870 10874 10879 10883 10885 10889 10894 10898 10903 10907 10911 10914 10918 10921 10925 10928 10931 10934 10937 10939 10941 10943 10945 10946 10948 10949 10950 10950 10952 10954 10957 10958 10959 10961 10962 10964 10965 10966 10967 10968 10969 10971 10973 10975 10976 10977 10978 10979 10981 10982 10984 10986
10790 10793 10795 10797 10799 10801 10802 10804 10806 10808 10809 10810 10811 10813 10815 10817 10819 10822 10824 10826 10827 10829 10830 10831 10831 10833 10835 10838 10841 10844 10848 10852 10856 10860 10864 10869 10874 10878 10881 10884 10888 10893 10898 10901 10905 10909 10913 10917 10920 10924 10927 10930 10933 10937 10939 10941 10943 10944 10946 10949 10951 10951 10951 10952 10954 10956 10958 10959 10961 10963 10964 10966 10967 10968 10969 10970 10972 10973 10975 10976 10978 10978 10979 10981 10983 10984
10785 10788 10790 10792 10794 10796 10798 10800 10802 10803 10804 10805 10807 10808 10809 10811 10814 10816 10819 10821 10823 10823 10824 10825 10826 10828 10831 10834 10836 10839 10843 10847 10851 10854 10858 10863 10869 10873 10875 10878 10882 10887 10891 10895 10899 10903 10907 10912 10915 10919 10923 10926 10929 10933 10935 10937 10940 10942 10944 10946 10948 10950 10952 10952 10952 10954 10956 10958 10960 10962 10964 10965 10967 10968 10968 10970 10971 10972 10973 10975 10976 10977 10978 10979 10981 10982
10780 10782 10784 10786 10788 10791 10794 10797 10798 10798 10799 10800 10801 10803 10805 10807 10808 10811 10814 10816 10817 10818 10819 10820 10821 10824 10827 10829 10832 10835 10837 10841 10845 10848 10851 10856 10862 10866 10869 10872 10876 10881 10885 10889 10893 10897 10902 10907 10910 10914 10918 10921 10924 10927 10930 10933 10936 10939 10941 10943 10945 10947 10950 10952 10953 10953 10954 10955 10957 10960 10962 10964 10966 10967 10968 10969 10970 10971 10972 10973 10974 10975 10976 10978 10980 10981
10774 10776 10778 10781 10783 10786 10789 10792 10793 10793 10794 10795 10797 10798 10800 10802 10804 10806 10809 10810 10811 10812 10814 10815 10817 10819 10822 10824 10827 10830 10832 10834 10838 10841 10844 10848 10854 10860 10863 10866 10870 10875 10879 10884 10888 10892 10897 10902 10906 10909 10913 10917 10920 10923 10926 10929 10932 10935 10937 10939 10942 10944 10947 10950 10952 10954 10954 10955 10956 10958 10960 10962 10964 10965 10967 10968 10969 10970 10971 10972 10973 10974 10975 10977 10978 10979
10768 10770 10773 10776 10778 10781 10784 10786 10788 10789 10790 10792 10794 10795 10796 10797 10799 10801 10803 10804 10806 10808 10809 10811 10812 10814 10816 10818 10821 10824 10826 10828 10831 10835 10839 10843 10847 10852 10857 10860 10864 10869 10874 10879 10883 10887 10892 10897 10901 10905 10908 10912 10916 10920 10923 10926 10929 10932 10934 10937 10939 10942 10945 10947 10950 10952 10954 10955 10955 10956 10958 10959 10961 10963 10965 10966 10968 10969 10971 10972 10973 10974 10975 10976 10978 10979
10763 10765 10768 10771 10772 10775 10779 10782 10784 10786 10787 10788 10790 10791 10792 10793 10794 10796 10797 10798 10800 10802 10804 10805 10806 10808 10810 10812 10815 10818 10820 10821 10824 10828 10833 10837 10841 10846 10850 10854 10858 10863 10868 10873 10877 10881 10885 10891 10896 10899 10903 10907 10911 10915 10919 10922 10925 10929 10932 10934 10936 10938 10941 10945 10947 10949 10952 10954 10955 10956 10956 10957 10958 10960 10962 10964 10966 10968 10969 10971 10972 10973 10974 10975 10977 10978
10757 10759 10762 10765 10767 10770 10773 10776 10779 10781 10783 10785 10786 10787 10788 10789 10789 10791 10792 10793 10794 10796 10797 10799 10800 10802 10805 10806 10808 10812 10813 10814 10817 10821 10826 10831 10834 10839 10843 10848 10852 10856 10860 10865 10869 10873 10878 10884 10889 10894 10898 10901 10905 10910 10914 10918 10922 10925 10928 10931 10933 10935 10938 10941 10944 10946 10948 10951 10953 10955 10955 10955 10956 10957 10959 10961 10963 10965 10966 10968 10969 10970 10972 10973 10975 10976
10751 10753 10755 10759 10761 10764 10767 10770 10773 10776 10779 10781 10782 10783 10783 10783 10784 10785 10787 10788 10788 10789 10790 10792 10794 10796 10798 10800 10802 10805 10807 10809 10812 10815 10819 10824 10827 10831 10835 10839 10844 10848 10852 10856 10861 10866 10872 10878 10883 10888 10892 10896 10900 10904 10908 10913 10917 10921 10924 10926 10929 10933 10935 10937 10939 10942 10944 10946 10949 10951 10952 10953 10954 10954 10955 10957 10959 10961 10963 10964 10966 10967 10969 10970 10972 10973
10746 10748 10750 10753 10755 10758 10762 10765 10768 10771 10773 10775 10776 10777 10777 10778 10779 10780 10781 10782 10783 10783 10784 10786 10789 10791 10792 10794 10796 10800 10802 10804 10806 10809 10812 10816 10819 10823 10827 10831 10836 10840 10844 10849 10854 10860 10866 10872 10877 10882 10886 10891 10895 10899 10903 10907 10912 10916 10919 10922 10925 10928 10931 10932 10935 10937 10940 10942 10944 10946 10948 10950 10951 10951 10952 10954 10956 10958 10959 10961 10962 10964 10966 10967 10968 10969
10742 10744 10746 10747 10749 10752 10756 10760 10763 10765 10767 10768 10769 10770 10771 10773 10773 10774 10775 10776 10777 10777 10778 10781 10784 10786 10787 10789 10792 10795 10797 10799 10801 10802 10805 10808 10811 10816 10820 10824 10829 10833 10838 10843 10848 10854 10860 10866 10871 10876 10881 10886 10890 10894 10898 10902 10906 10910 10914 10917 10920 10922 10925 10928 10930 10933 10936 10938 10940 10941 10943 10945 10946 10948 10949 10951 10952 10954 10956 10958 10959 10960 10962 10963 10964 10966
10738 10740 10741 10743 10745 10747 10750 10753 10757 10760 10760 10761 10763 10764 10766 10767 10768 10769 10770 10770 10771 10771 10773 10776 10779 10780 10782 10784 10787 10789 10791 10793 10795 10796 10797 10801 10805 10809 10813 10817 10822 10826 10831 10837 10842 10848 10853 10859 10865 10871 10876 10880 10885 10889 10893 10896 10900 10904 10908 10912 10914 10917 10920 10923 10926 10929 10932 10934 10936 10937 10938 10940 10942 10944 10946 10947 10948 10950 10951 10953 10955 10956 10957 10958 10960 10962
10734 10736 10737 10738 10741 10743 10744 10748 10752 10754 10755 10755 10757 10759 10761 10762 10763 10764 10764 10765 10766 10767 10769 10772 10774 10776 10778 10780 10782 10784 10786 10788 10789 10789 10791 10794 10798 10802 10806 10810 10815 10819 10825 10830 10836 10841 10847 10853 10859 10865 10870 10874 10879 10884 10887 10891 10894 10898 10902 10905 10909 10912 10914 10918 10921 10924 10926 10929 10931 10932 10935 10937 10939 10940 10941 10942 10943 10945 10946 10948 10949 10951 10952 10954 10955 10956
10730 10732 10733 10735 10737 10739 10740 10742 10746 10749 10750 10751 10752 10754 10755 10756 10758 10758 10759 10760 10762 10764 10766 10768 10770 10772 10774 10775 10776 10778 10780 10782 10783 10784 10785 10788 10792 10796 10799 10803 10808 10812 10817 10823 10829 10834 10840 10845 10851 10857 10863 10868 10873 10877 10881 10885 10888 10891 10895 10899 10903 10906 10909 10912 10915 10918 10921 10924 10926 10929 10931 10934 10935 10936 10937 10939 10940 10941 10942 10943 10945 10947 10948 10949 10950 10950
10725 10727 10729 10732 10734 10735 10736 10738 10741 10744 10745 10746 10747 10749 10750 10751 10753 10753 10754 10756 10759 10761 10763 10765 10766 10768 10769 10770 10771 10772 10774 10776 10777 10778 10779 10782 10786 10789 10793 10796 10801 10805 10810 10815 10821 10826 10832 10837 10842 10848 10855 10861 10866 10870 10875 10879 10882 10886 10889 10892 10896 10900 10903 10906 10908 10911 10915 10919 10922 10925 10928 10929 10931 10932 10933 10935 10936 10937 10938 10939 10941 10942 10943 10944 10945 10945
10721 10723 10726 10729 10730 10730 10731 10734 10736 10738 10740 10741 10742 10744 10745 10746 10748 10749 10750 10753 10757 10758 10759 10761 10763 10764 10765 10766 10767 10767 10768 10770 10772 10773 10774 10777 10780 10783 10786 10789 10793 10798 10802 10807 10813 10818 10823 10828 10834 10840 10847 10853 10859 10863 10868 10873 10877 10879 10882 10886 10889 10892 10896 10900 10904 10908 10911 10914 10917 10921 10924 10925 10927 10928 10929 10929 10931 10933 10933 10935 10937 10938 10939 10940 10941 10940
10716 10719 10722 10724 10725 10726 10728 10730 10732 10733 10735 10736 10738 10739 10740 10742 10743 10745 10747 10751 10753 10755 10756 10757 10759 10760 10761 10762 10762 10763 10764 10765 10766 10767 10770 10772 10775 10777 10780 10783 10786 10791 10795 10800 10805 10810 10815 10820 10826 10832 10839 10845 10851 10857 10862 10866 10870 10873 10876 10879 10881 10884 10889 10896 10901 10904 10906 10909 10912 10915 10918 10921 10923 10924 10925 10926 10927 10929 10929 10930 10932 10934 10934 10935 10936 10937
10711 10714 10717 10719 10720 10722 10724 10726 10727 10729 10730 10731 10734 10735 10736 10737 10739 10742 10744 10747 10749 10751 10753 10754 10756 10757 10758 10759 10759 10759 10760 10761 10762 10763 10765 10768 10770 10772 10774 10776 10780 10783 10788 10793 10798 10803 10808 10813 10818 10824 10830 10837 10844 10850 10855 10859 10862 10866 10869 10872 10874 10879 10885 10890 10894 10898 10901 10904 10907 10910 10913 10917 10919 10920 10921 10922 10923 10924 10925 10927 10929 10930 10930 10929 10931 10934
10706 10709 10712 10714 10716 10718 10720 10722 10723 10724 10725 10727 10730 10731 10732 10734 10736 10739 10742 10744 10746 10748 10750 10752 10753 10755 10755 10756 10756 10757 10757 10758 10759 10760 10761 10763 10765 10766 10768 10770 10773 10776 10780 10785 10790 10795 10800 10805 10811 10816 10822 10829 10835 10841 10847 10851 10855 10858 10862 10865 10869 10874 10879 10884 10888 10893 10896 10899 10902 10906 10909 10913 10915 10916 10917 10918 10920 10921 10923 10924 10924 10925 10925 10925 10926 10928
10701 10705 10708 10711 10713 10715 10717 10718 10719 10719 10721 10723 10726 10727 10728 10731 10734 10736 10739 10741 10743 10745 10748 10750 10751 10752 10753 10753 10754 10754 10755 10755 10756 10757 10758 10759 10760 10761 10762 10765 10768 10770 10774 10778 10782 10787 10792 10798 10803 10809 10814 10820 10826 10833 10839 10843 10847 10851 10855 10859 10864 10869 10874 10878 10882 10887 10891 10895 10898 10902 10905 10909 10911 10912 10912 10914 10917 10919 10920 10920 10919 10919 10919 10920 10921 10921
10697 10701 10704 10707 10710 10712 10713 10714 10715 10716 10718 10720 10722 10724 10726 10729 10732 10734 10737 10739 10741 10744 10746 10747 10749 10749 10750 10751 10752 10752 10753 10753 10754 10754 10755 10755 10755 10756 10758 10760 10763 10765 10768 10771 10775 10780 10785 10790 10796 10801 10806 10812 10818 10824 10830 10835 10839 10843 10848 10854 10859 10864 10868 10872 10876 10881 10885 10889 10893 10898 10902 10906 10907 10907 10906 10908 10912 10916 10917 10915 10914 10913 10913 10914 10915 10915
10693 10697 10700 10703 10706 10707 10709 10710 10711 10712 10714 10716 10719 10721 10724 10726 10729 10732 10735 10737 10740 10742 10744 10745 10746 10747 10748 10749 10750 10751 10751 10752 10752 10752 10752 10752 10752 10752 10754 10756 10758 10760 10763 10766 10769 10774 10778 10783 10788 10793 10799 10804 10810 10816 10821 10826 10830 10835 10841 10848 10853 10857 10861 10866 10871 10875 10879 10883 10888 10893 10897 10900 10902 10902 10902 10902 10906 10911 10912 10911 10910 10908 10906 10906 10908 10909
10690 10693 10696 10699 10701 10703 10705 10707 10708 10709 10711 10713 10715 10718 10721 10724 10727 10730 10732 10735 10738 10740 10742 10743 10744 10745 10746 10747 10748 10749 10750 10751 10751 10751 10750 10750 10750 10750 10751 10753 10755 10756 10758 10760 10764 10768 10772 10776 10781 10786 10791 10797 10802 10807 10812 10817 10822 10827 10834 10841 10846 10850 10855 10860 10864 10868 10873 10878 10882 10885 10889 10892 10894 10896 10895 10896 10899 10904 10905 10905 10904 10901 10899 10900 10902 10903
10687 10690 10692 10695 10697 10699 10701 10703 10703 10705 10707 10710 10713 10716 10719 10722 10725 10728 10730 10733 10736 10737 10739 10741 10742 10743 10744 10745 10746 10747 10748 10749 10750 10749 10749 10748 10748 10748 10749 10750 10751 10752 10754 10756 10759 10763 10766 10771 10775 10779 10784 10789 10794 10799 10803 10808 10814 10820 10827 10833 10838 10843 10848 10852 10857 10862 10866 10870 10874 10877 10881 10885 10887 10888 10888 10890 10892 10894 10893 10893 10892 10891 10891 10893 10895 10895
10684 10687 10689 10691 10693 10695 10696 10698 10700 10702 10704 10708 10711 10714 10717 10720 10723 10725 10728 10731 10733 10735 10736 10738 10740 10741 10742 10743 10744 10745 10746 10747 10747 10747 10747 10747 10747 10747 10747 10747 10748 10749 10751 10752 10755 10758 10761 10765 10768 10773 10777 10782 10786 10791 10795 10800 10806 10813 10819 10825 10830 10835 10840 10844 10850 10855 10859 10863 10867 10871 10875 10878 10878 10879 10880 10882 10883 10883 10882 10881 10882 10882 10884 10886 10887 10886
10679 10681 10684 10687 10688 10690 10692 10694 10697 10699 10702 10705 10708 10711 10714 10717 10720 10723 10725 10728 10730 10732 10734 10736 10738 10739 10740 10741 10742 10743 10744 10744 10745 10745 10745 10745 10745 10745 10745 10745 10746 10746 10747 10749 10751 10753 10755 10758 10762 10765 10770 10774 10779 10783 10787 10792 10799 10805 10811 10816 10821 10827 10832 10837 10843 10848 10852 10856 10860 10864 10867 10869 10868 10869 10872 10873 10873 10873 10874 10874 10875 10875 10876 10878 10879 10879
10673 10676 10680 10682 10684 10685 10687 10690 10694 10696 10699 10702 10705 10708 10712 10715 10718 10720 10723 10724 10726 10729 10731 10733 10735 10736 10737 10738 10739 10740 10741 10742 10742 10742 10743 10743 10743 10743 10743 10743 10744 10744 10745 10746 10747 10748 10750 10752 10755 10758 10762 10767 10771 10775 10780 10786 10791 10797 10802 10808 10813 10819 10825 10830 10835 10840 10844 10847 10851 10854 10857 10858 10859 10860 10862 10862 10863 10864 10866 10866 10866 10867 10868 10869 10870 10870